Change the Weather History Date:

Wednesday, May 22, 2013

  Actual Average Record
Temperature  
Mean Temperature 51 °F 53 °F  
Max Temperature 54 °F 66 °F 94 °F (1992)
Min Temperature 48 °F 40 °F 23 °F (1982)
Degree Days  
Heating Degree Days 14 12  
Month to date heating degree days 273 337  
Since 1 July heating degree days 8250 8910  
Cooling Degree Days 0 0  
Month to date cooling degree days 0 0  
Year to date cooling degree days 0 0  
Growing Degree Days 1 (Base 50)    
Moisture  
Dew Point 49 °F    
Average Humidity 93    
Maximum Humidity 100    
Minimum Humidity 86    
Precipitation  
Precipitation 0.13 in 0.11 in 1.30 in (1998)
Month to date precipitation 1.37 2.32  
Year to date precipitation 6.89 13.65  
Snow  
Snow 0.00 in 0.00 in 2.00 in (1990)
Month to date snowfall 0.0 0.1  
Snow Depth 0.00 in    
Sea Level Pressure  
Sea Level Pressure 29.99 in    
Wind  
Wind Speed 5 mph (SE)    
Max Wind Speed 10 mph    
Max Gust Speed 17 mph    
Visibility 6 miles    
Events Rain    
T = Trace of Precipitation, MM = Missing Value Source: NWS Daily Summary

Daily Weather History Graph

Daily Weather History Graph

Search for Another Location

Airport or City:

Trip Planner

Search our weather history database for the weather conditions in past years. The results will help you decide how hot, cold, wet, or windy it might be!

Date:

Astronomy

May. 22, 2013 Rise Set
Actual Time 4:50 AM EDT 8:05 PM EDT
Civil Twilight 4:14 AM EDT 8:41 PM EDT
Nautical Twilight 3:27 AM EDT 9:29 PM EDT
Astronomical Twilight 2:29 AM EDT 10:28 PM EDT
Moon 5:15 PM EDT (5/22) 3:02 AM EDT (5/22)
Length of Visible Light 16h 26m
Length of Day
15h 14m
Waxing Gibbous, 91% of the Moon is Illuminated
May 22
Waxing Gibbous
May 25
Full
May 31
Last Quarter
Jun 8
New
Jun 16
First Quarter

Hourly Weather History & Observations

Time (EDT) Temp. Dew Point Humidity Pressure Visibility Wind Dir Wind Speed Gust Speed Precip Events Conditions
12:53 AM 51.1 °F 48.0 °F 89% 30.02 in 10.0 mi Calm Calm - N/A   Clear
1:53 AM 50.0 °F 46.9 °F 89% 29.99 in 10.0 mi South 4.6 mph - N/A   Clear
2:53 AM 50.0 °F 48.0 °F 93% 29.98 in 10.0 mi South 3.5 mph - N/A   Clear
3:53 AM 48.9 °F 48.0 °F 97% 30.01 in 10.0 mi Calm Calm - N/A   Overcast
4:05 AM 48.2 °F 46.4 °F 93% 30.00 in 10.0 mi Calm Calm - N/A   Mostly Cloudy
4:53 AM 48.9 °F 46.9 °F 93% 30.02 in 10.0 mi Calm Calm - N/A   Overcast
5:19 AM 48.2 °F 46.4 °F 93% 30.01 in 8.0 mi SSE 3.5 mph - 0.00 in Rain Light Rain
5:53 AM 48.9 °F 46.9 °F 93% 30.03 in 7.0 mi Calm Calm - 0.02 in Rain Light Rain
6:00 AM 48.2 °F 46.4 °F 93% 30.02 in 7.0 mi SSE 3.5 mph - 0.00 in Rain Light Rain
6:28 AM 48.2 °F 46.4 °F 93% 30.01 in 7.0 mi ESE 4.6 mph - 0.02 in Rain Light Rain
6:53 AM 48.9 °F 46.9 °F 93% 30.01 in 9.0 mi ESE 4.6 mph - 0.03 in Rain Light Rain
7:11 AM 48.2 °F 46.4 °F 93% 30.00 in 10.0 mi ESE 8.1 mph - 0.00 in   Overcast
7:53 AM 48.9 °F 46.9 °F 93% 30.03 in 9.0 mi ESE 5.8 mph - 0.01 in Rain Light Rain
8:27 AM 50.0 °F 48.2 °F 94% 30.01 in 9.0 mi SE 4.6 mph - 0.01 in Rain Light Rain
8:53 AM 50.0 °F 48.0 °F 93% 30.04 in 10.0 mi Calm Calm - 0.01 in Rain Light Rain
9:53 AM 51.1 °F 48.9 °F 92% 30.03 in 7.0 mi ESE 5.8 mph - 0.01 in Rain Light Rain
10:30 AM 51.8 °F 48.2 °F 88% 30.02 in 10.0 mi ESE 6.9 mph - 0.00 in   Overcast
10:46 AM 51.8 °F 48.2 °F 88% 30.01 in 5.0 mi East 5.8 mph - 0.00 in   Overcast
10:53 AM 52.0 °F 50.0 °F 93% 30.03 in 4.0 mi ESE 5.8 mph - 0.00 in   Overcast
11:04 AM 51.8 °F 48.2 °F 88% 30.01 in 3.0 mi SE 6.9 mph - 0.00 in Rain Light Rain
11:19 AM 51.8 °F 50.0 °F 94% 30.01 in 2.0 mi Variable 5.8 mph - 0.00 in Rain Light Rain
11:53 AM 52.0 °F 50.0 °F 93% 30.02 in 3.0 mi SE 4.6 mph - 0.01 in   Overcast
12:14 PM 51.8 °F 50.0 °F 94% 30.01 in 2.5 mi ESE 8.1 mph - 0.00 in Rain Light Rain
12:20 PM 51.8 °F 50.0 °F 94% 30.00 in 1.8 mi Variable 6.9 mph - 0.01 in Rain Light Rain
12:31 PM 53.6 °F 50.0 °F 88% 30.00 in 2.5 mi SSE 8.1 mph - 0.01 in Rain Light Rain
12:43 PM 53.6 °F 51.8 °F 94% 30.00 in 3.0 mi Variable 5.8 mph - 0.01 in   Overcast
12:53 PM 53.1 °F 50.0 °F 89% 30.01 in 2.5 mi SE 9.2 mph - 0.01 in Rain Light Rain
1:10 PM 53.6 °F 51.8 °F 94% 29.99 in 2.5 mi Variable 4.6 mph - 0.00 in Rain Light Rain
1:15 PM 53.6 °F 51.8 °F 94% 29.99 in 4.0 mi SE 8.1 mph - 0.00 in   Overcast
1:28 PM 53.6 °F 51.8 °F 94% 29.99 in 4.0 mi Variable 5.8 mph - 0.01 in   Overcast
1:36 PM 53.6 °F 51.8 °F 94% 29.99 in 10.0 mi ESE 8.1 mph - 0.01 in   Overcast
1:53 PM 53.1 °F 50.0 °F 89% 29.99 in 9.0 mi SE 4.6 mph - 0.01 in   Overcast
2:51 PM 53.6 °F 50.0 °F 88% 29.98 in 10.0 mi Variable 6.9 mph - N/A   Overcast
2:53 PM 54.0 °F 50.0 °F 86% 29.99 in 10.0 mi SE 5.8 mph - N/A   Overcast
3:53 PM 54.0 °F 50.0 °F 86% 29.98 in 9.0 mi Variable 3.5 mph - N/A   Overcast
4:53 PM 53.1 °F 50.0 °F 89% 29.97 in 7.0 mi SSE 5.8 mph - N/A   Overcast
5:19 PM 53.6 °F 50.0 °F 88% 29.96 in 9.0 mi Variable 5.8 mph - N/A   Overcast
5:42 PM 53.6 °F 51.8 °F 94% 29.96 in 2.0 mi Variable 5.8 mph - N/A   Overcast
5:53 PM 53.1 °F 51.1 °F 93% 29.97 in 2.0 mi SSE 6.9 mph - N/A   Overcast
6:05 PM 53.6 °F 51.8 °F 94% 29.96 in 2.5 mi SSE 6.9 mph - N/A   Overcast
6:12 PM 53.6 °F 51.8 °F 94% 29.96 in 2.5 mi SSE 6.9 mph - N/A   Overcast
6:30 PM 51.8 °F 51.8 °F 100% 29.96 in 3.0 mi SSE 5.8 mph - N/A   Overcast
6:38 PM 51.8 °F 51.8 °F 100% 29.96 in 2.5 mi Variable 5.8 mph - N/A   Overcast
6:53 PM 52.0 °F 51.1 °F 97% 29.98 in 1.8 mi Variable 5.8 mph - 0.00 in Rain Light Rain
6:56 PM 51.8 °F 51.8 °F 100% 29.96 in 2.0 mi SSE 6.9 mph - 0.00 in Rain Light Rain
6:59 PM 51.8 °F 51.8 °F 100% 29.97 in 3.0 mi SSE 6.9 mph - 0.00 in   Overcast
7:14 PM 53.6 °F 51.8 °F 94% 29.97 in 9.0 mi SSE 6.9 mph - 0.00 in   Overcast
7:30 PM 51.8 °F 51.8 °F 100% 29.98 in 2.5 mi South 4.6 mph - 0.00 in   Overcast
7:43 PM 51.8 °F 51.8 °F 100% 29.98 in 2.0 mi South 9.2 mph - 0.01 in Rain Light Rain
7:53 PM 52.0 °F 50.0 °F 93% 29.99 in 4.0 mi South 5.8 mph - 0.01 in   Overcast
8:53 PM 51.1 °F 48.9 °F 92% 29.99 in 10.0 mi South 4.6 mph - 0.00 in   Overcast
9:53 PM 50.0 °F 48.0 °F 93% 29.98 in 5.0 mi SSE 8.1 mph - N/A   Overcast
10:53 PM 48.9 °F 46.9 °F 93% 29.98 in 8.0 mi South 5.8 mph - N/A   Overcast
11:53 PM 48.9 °F 46.9 °F 93% 29.96 in 7.0 mi Variable 5.8 mph - N/A   Overcast